SCP
0 0 0 0 0 0 0 0 0 0 0 0 0 0 0 0 0 0 0 0 0 0 0 0 0 0 0 0 0 0 0 0 0 0 0 0 0 0 0 0 0 0 0 0 0 0 0 0 0 0 0 0 0 0
0 0 0 0 0 0 0 0 0 0 0 0 0 0 0 0 0 0 0 0 0 0 0 0 0 0 0 0 0 0 0 0 0 0 0 0 0 0 0 0 0 0 0 0 0 0 0 0 0 0 0 0 0 0
0 0 0 0 0 0 0 0 0 0 0 0 0 0 0 0 0 0 0 0 0 0 0 0 0 0 0 0 0 0 0 0 0 0 0 0 0 0 0 0 0 0 0 0 0 0 0 0 0 0 0 0 0 0
0 0 0 0 0 0 0 0 0 0 0 0 0 0 0 0 0 0 0 0 0 0 0 0 0 0 0 0 0 0 0 0 0 0 0 0 0 0 0 0 0 0 0 0 0 0 0 0 0 0 0 0 0 0
0 0 0 0 0 0 0 0 0 0 0 0 0 0 0 0 0 0 0 0 0 0 0 0 0 0 0 0 0 0 0 0 0 0 0 0 0 0 0 0 0 0 0 0 0 0 0 0 0 0 0 0 0 0
0 0 0 0 0 0 0 0 0 0 0 0 0 0 0 0 0 0 0 0 0 0 0 0 0 0 0 0 0 0 0 0 0 0 0 0 0 0 0 0 0 0 0 0 0 0 0 0 0 0 0 0 0 0
0 0 0 0 0 0 0 0 0 0 0 0 0 0 0 0 0 0 0 0 0 0 0 0 0 0 0 0 0 0 0 0 0 0 0 0 0 0 0 0 0 0 0 0 0 0 0 0 0 0 0 0 0 0
0 0 0 0 0 0 0 0 0 0 0 0 0 0 0 0 0 0 0 0 0 0 0 0 0 0 0 0 0 0 0 0 0 0 0 0 0 0 0 0 0 0 0 0 0 0 0 0 0 0 0 0 0 0
0 0 0 0 0 0 0 0 0 0 0 0 0 0 0 0 0 0 0 0 0 0 0 0 0 0 0 0 0 0 0 0 0 0 0 0 0 0 0 0 0 0 0 0 0 0 0 0 0 0 0 0 0 0
0 0 0 0 0 0 0 0 0 0 0 0 0 0 0 0 0 0 0 0 0 0 0 0 0 0 0 0 0 0 0 0 0 0 0 0 0 0 0 0 0 0 0 0 0 0 0 0 0 0 0 0 0 0
0 0 0 0 0 0 0 0 0 0 0 0 0 0 0 0 0 0 0 0 0 0 0 0 -0 0 0 0 0 0 0 0 0 0 0 0 0 0 0 0 0 0 0 0 0 0 0 0 0 0 0 0 0 0
0 0 0 0 0 0 0 0 0 0 0 0 0 0 0 0 0 0 0 0 0 0 0 -0 -0 0 0 0 0 0 0 0 0 0 0 0 0 0 0 0 0 0 0 0 0 0 0 0 0 0 0 0 0 0
0 0 0 0 0 0 0 0 0 0 0 0 0 0 0 0 0 0 0 0 0 0 0 0 0 0 0 0 0 0 0 0 0 0 0 0 0 0 0 0 0 0 0 0 0 0 0 0 0 0 0 0 0 0
0 0 0 0 0 0 0 0 0 0 0 0 0 0 0 0 0 0 0 0 0 0 0 0 0 0 0 0 0 0 0 0 0 0 0 0 0 0 0 0 0 0 0 0 0 0 0 0 0 0 0 0 0 0
0 0 0 0 0 0 0 0 0 0 0 0 0 0 0 0 0 0 0 0 0 0 0 0 0 0 0 0 0 0 0 0 0 0 0 0 0 0 0 0 -0 -0 0 0 0 0 0 -0 -0 -0 -0 -0 -0 -0
0 0 0 0 0 0 0 0 0 0 0 0 0 0 0 0 0 0 0 0 0 0 0 0 0 0 0 0 0 0 0 0 0 0 0 0 -0 -0 -0 -0 0 -0 -0 -0 -0 -0 -0 -0 -0 -0 -0 -0 -0 0
0 0 0 0 0 0 0 0 0 0 0 0 0 0 0 0 0 0 0 0 0 0 0 0 0 0 0 0 0 0 0 0 0 0 0 0 0 -0 -0 -0 -0 -0 -0 -0 -0 -0 -0 -0 -0 0 0 0 -0 0
0 0 0 0 0 0 0 0 0 0 0 0 0 0 0 0 0 0 0 0 0 0 0 0 0 0 0 0 0 0 0 0 0 0 0 0 0 0 -0 -0 -0 -0 -0 -0 0 -0 0 0 0 -0 0 -0 -0 0
0 0 0 0 0 0 0 0 0 0 0 0 0 0 0 0 0 0 0 0 0 0 0 0 0 0 0 0 -0 -0 -0 -0 -0 -0 0 0 0 0 0 -0 -0 0 0 0 0 -0 -0 -0 0 0 -0 0 0 0
0 0 0 0 0 0 0 0 0 0 0 0 0 0 0 0 0 0 0 0 0 0 0 0 0 0 -0 0 -0 -0 -0 -0 -0 -0 -0 -0 -0 0 -0 -0 0 -0 -0 0 0 0 0 0 0 0 0 0 0 0
0 0 0 0 0 0 0 0 0 0 0 0 0 0 0 0 0 0 0 0 0 0 -0 0 0 0 -0 -0 0 -0 -0 -0 -0 -0 -0 -0 -0 0 0 0 -0 -0 -0 -0 0 -0 -0 -0 0 0 0 0 0 0
0 0 0 0 0 0 0 0 0 0 0 0 0 0 0 0 0 0 0 0 -0 -0 -0 0 0 -0 -0 -0 -0 -0 -0 0 -0 -0 -0 -0 -0 -0 -0 -0 -0 -0 -0 -0 -0 -0 -0 0 0 0 -0 0 0 0
0 0 0 0 0 0 0 0 0 0 0 0 0 0 0 0 0 0 -0 0 0 0 0 -0 -0 -0 -0 -0 0 0 -0 -0 0 0 -0 -0 -0 -0 -0 -0 -0 -0 -0 0 0 -0 -0 0 0 0 -0 0 0 0
0 0 0 0 0 0 0 0 0 0 0 0 0 0 0 0 -0 -0 0 0 0 -0 -0 -0 -0 -0 0 0 -0 -0 -0 -0 -0 -0 -0 -0 -0 -0 -0 -0 -0 -0 -0 -0 -0 -0 0 0 -0 -0 0 0 0 0
0 0 0 0 0 0 0 0 0 0 0 0 0 0 0 -0 -0 0 0 -0 -0 -0 -0 -0 -0 -0 0 -0 -0 -0 -0 -0 -0 -0 -0 -0 -0 -0 -0 0 0 0 0 -0 -0 -0 -0 -0 -0 -0 0 0 0 0
0 0 0 0 0 0 0 0 0 0 0 0 0 0 0 -0 -0 -0 -0 -0 -0 -0 -0 -0 0 -0 -0 -0 -0 -0 -0 -0 -0 -0 -0 -0 -0 -0 -0 -0 -0 -0 -0 0 -0 -0 -0 -0 -0 -0 -0 -0 0 0
0 0 0 0 0 0 0 0 0 0 0 0 0 0 -0 -0 -0 -0 0 -0 -0 -0 0 0 0 -0 -0 -0 -0 -0 -0 -0 -0 -0 -0 -0 -0 -0 -0 -0 -0 -0 -0 -0 -0 -0 -0 -0 -0 -0 -0 0 0 0
0 0 0 0 0 0 0 0 0 0 0 0 0 -0 -0 0 -0 0 -0 -0 0 0 0 0 0 -0 -0 -0 -0 -0 -0 -0 -0 -0 -0 -0 -0 -0 -0 -0 -0 -0 -0 -0 -0 -0 -0 -0 -0 -0 -0 0 0 -0
0 0 0 0 0 0 0 0 0 0 0 0 -0 -0 -0 0 -0 -0 -0 -0 0 0 0 0 -0 -0 -0 -0 -0 -0 -0 -0 -0 -0 -0 -0 -0 -0 -0 -0 -0 -0 -0 -0 0 0 0 -0 -0 -0 -0 -0 -0 0
0 0 0 0 0 0 0 0 0 0 0 -0 -0 -0 -0 -0 -0 -0 -0 -0 0 -0 -0 0 0 0 -0 -0 -0 -0 0 0 0 0 0 -0 -0 -0 -0 -0 -0 0 -0 0 0 -0 -0 -0 -0 -0 -0 -0 -0 -0
0 0 0 0 0 0 0 0 0 0 -0 -0 -0 -0 -0 -0 -0 -0 -0 -0 -0 -0 0 0 -0 0 -0 -0 0 -0 -0 0 0 -0 -0 -0 -0 -0 -0 0 0 0 0 0 0 -0 -0 0 0 -0 -0 -0 -0 -0
0 0 0 0 0 0 0 0 0 0 -0 -0 -0 -0 -0 -0 -0 -0 -0 -0 -0 -0 -0 0 -0 -0 0 0 -0 0 -0 0 -0 -0 -0 -0 -0 -0 0 0 0 0 0 0 -0 0 0 0 -0 0 0 -0 -0 0
0 0 0 0 0 0 0 0 0 0 0 0 -0 -0 -0 -0 -0 -0 -0 -0 -0 0 -0 0 0 0 -0 -0 -0 -0 -0 -0 -0 -0 -0 -0 -0 -0 0 0 0 0 0 0 0 0 0 -0 0 0 0 0 0 0
Wind_Speed_500mb
41 42 42 45 48 51 51 49 47 48 47 45 43 40 39 39 36 36 39 38 39 38 50 59 60 45 34 24 15 15 13 16 7 7 6 8 9 11 14 16 9 13 9 6 9 9 16 9 2 1 3 3 11 23
43 46 47 50 51 52 51 50 49 49 49 47 46 45 48 47 46 40 49 46 46 57 67 73 78 81 80 79 68 61 38 17 15 4 4 4 5 4 10 11 10 18 14 8 14 9 9 11 14 16 17 20 31 39
48 50 51 51 52 54 55 52 53 50 55 50 53 55 52 55 54 47 53 47 51 56 69 58 49 34 44 61 51 63 47 37 32 52 30 11 17 6 13 20 27 22 16 18 16 23 31 50 61 43 32 36 34 29
51 52 52 52 53 55 55 54 53 54 53 53 55 56 57 58 45 47 41 41 49 32 25 54 49 48 37 34 42 46 61 70 80 57 34 15 17 26 15 18 22 22 13 27 40 39 37 47 52 57 63 42 35 46
52 52 53 56 59 57 57 57 58 56 58 53 57 55 48 52 47 45 50 46 45 41 38 71 72 84 88 89 90 52 70 69 67 36 13 12 11 13 20 16 22 32 35 27 34 22 37 54 66 67 71 54 50 60
54 54 52 54 55 57 57 57 60 59 52 54 51 52 50 46 49 51 39 34 20 23 21 9 17 22 24 51 76 79 64 58 46 28 7 14 43 18 9 21 41 54 62 65 62 70 76 79 70 65 64 67 77 76
54 53 54 55 54 54 56 62 59 52 48 45 43 47 52 53 46 42 29 40 48 48 24 11 11 9 11 16 24 37 35 37 37 30 26 47 49 26 13 27 48 71 76 68 66 72 77 76 73 79 80 79 78 72
49 54 53 51 56 58 56 47 40 44 45 46 52 53 53 53 54 59 57 47 43 48 23 6 9 22 47 43 30 44 41 42 29 34 25 16 24 22 15 35 58 66 68 62 67 65 77 76 79 77 82 81 70 71
54 52 54 56 57 59 53 50 44 44 41 49 52 47 49 30 18 15 32 40 41 33 11 6 3 8 8 17 19 22 24 3 19 10 15 17 11 14 17 35 41 42 41 42 61 73 74 77 82 82 78 73 72 75
50 57 52 53 52 45 42 39 36 41 44 45 41 14 10 6 29 50 31 8 5 9 17 7 20 14 18 14 7 6 10 6 5 11 11 10 18 61 64 68 73 64 65 65 59 55 61 63 69 72 71 80 80 74
43 51 51 40 35 36 35 37 34 33 35 26 7 8 26 43 36 5 7 3 6 6 4 13 9 13 25 6 8 12 5 5 6 8 8 5 7 21 48 61 68 70 73 67 63 64 66 67 65 62 61 62 64 63
50 42 35 37 37 40 31 29 25 29 23 23 20 34 22 8 5 7 5 11 6 5 6 8 21 27 21 16 7 7 6 4 9 11 6 4 9 24 18 15 15 24 41 47 46 50 50 56 58 62 67 60 57 55
39 38 37 36 31 27 25 28 23 25 21 19 6 6 6 4 8 7 7 8 5 7 14 23 15 11 12 13 11 1 5 9 5 2 7 11 13 9 13 15 17 17 19 19 21 22 26 38 46 50 53 52 55 65
37 35 32 26 28 23 26 24 21 18 8 5 6 7 7 7 8 9 9 9 32 23 29 42 17 9 11 4 7 3 9 1 5 4 11 9 21 15 20 19 26 30 32 36 40 41 43 46 53 55 64 71 76 82
32 24 23 24 24 23 23 21 20 13 7 8 7 7 11 24 22 30 33 26 45 43 42 28 16 13 5 4 7 6 9 8 9 21 16 28 41 41 46 35 33 39 44 51 52 53 59 61 61 67 70 71 74 81
21 23 25 26 26 21 17 21 19 18 12 12 14 7 22 7 29 44 42 45 49 35 26 11 5 6 9 6 3 11 10 25 29 21 43 52 45 42 48 42 41 51 53 60 63 65 68 70 73 76 76 79 81 84
17 30 26 24 21 20 21 21 16 12 12 11 17 38 44 38 38 57 48 52 39 22 4 6 8 13 4 6 8 8 10 19 32 48 54 63 68 65 61 63 67 71 68 69 70 75 77 78 77 79 83 87 84 83
25 28 27 23 19 22 22 21 9 11 14 28 13 48 39 53 48 57 59 51 33 17 10 8 10 9 8 11 11 20 45 61 67 66 66 71 75 69 70 68 68 72 70 76 80 82 81 83 82 84 84 81 79 82
23 22 19 19 17 15 8 12 17 10 27 32 42 58 45 49 56 62 62 61 45 39 11 9 10 8 10 15 27 45 54 57 60 69 73 76 75 75 74 73 73 72 76 78 77 78 77 76 81 82 83 85 88 88
20 26 23 18 15 10 8 8 10 11 11 14 29 36 31 38 54 52 59 58 33 12 13 9 10 25 18 47 50 54 64 69 67 68 69 67 60 59 66 68 71 73 72 74 74 75 76 77 78 80 81 81 82 87
18 11 14 17 21 22 9 9 13 13 13 15 31 31 24 38 48 50 48 44 17 13 8 29 38 43 44 53 61 65 70 71 68 68 73 76 72 67 72 69 67 68 71 75 74 75 77 81 85 80 79 83 81 85
18 11 10 8 11 14 18 18 13 7 9 18 26 24 18 12 24 20 22 12 11 32 37 43 37 48 62 65 69 75 81 79 74 72 73 72 70 65 64 63 62 67 66 67 72 79 83 83 77 76 76 82 85 86
18 12 8 11 9 7 7 9 9 8 1 8 7 6 8 11 18 27 11 20 43 43 33 30 44 49 58 72 74 77 75 69 66 64 64 63 66 66 67 68 67 68 70 70 64 73 82 75 75 78 76 74 78 82
23 11 11 11 17 7 5 8 10 8 8 4 2 9 10 14 17 7 9 23 41 41 32 49 48 59 67 69 73 76 72 68 71 68 61 59 63 65 61 67 69 68 70 73 72 75 74 71 64 64 66 70 74 77
11 11 9 10 12 5 2 6 7 4 7 7 2 9 8 8 2 5 11 16 16 41 53 54 64 57 63 76 79 77 75 63 66 73 75 60 67 68 69 67 67 66 58 56 56 53 54 54 56 60 62 64 66 69
9 16 13 16 8 11 11 4 7 10 6 5 10 11 8 5 4 12 7 14 45 49 53 61 66 72 72 66 74 79 86 79 72 71 78 65 65 62 70 72 72 63 47 42 43 49 52 53 54 52 52 49 38 5
7 10 14 17 10 8 3 11 9 3 5 9 7 6 6 4 10 9 27 57 48 57 59 76 73 70 76 81 79 77 74 68 64 66 67 61 55 49 49 53 54 53 50 48 47 46 47 46 43 40 39 28 10 21
16 18 11 14 15 18 7 1 4 8 9 8 4 2 8 13 11 57 61 62 54 59 76 89 80 75 76 76 72 72 68 61 59 57 56 48 42 39 34 38 44 44 41 37 36 33 27 27 26 24 16 17 30 31
13 12 18 5 11 10 17 14 12 15 18 12 9 8 12 50 66 75 63 50 51 67 90 89 86 82 75 69 68 65 61 58 57 62 65 67 61 44 38 34 31 30 29 24 20 14 10 9 9 7 28 46 47 45
10 18 11 6 9 9 16 20 32 39 36 39 37 49 63 56 47 50 48 39 56 83 81 82 82 79 78 79 84 78 58 49 47 49 58 66 58 45 40 35 32 24 14 5 2 5 4 11 24 45 58 61 63 63
8 17 9 10 11 24 32 36 40 43 49 49 44 40 44 34 44 36 23 34 68 79 80 87 87 79 75 74 71 75 75 56 50 45 41 36 38 36 26 20 14 5 2 8 13 20 32 49 61 71 76 81 83 83
11 12 10 3 10 14 25 17 15 17 21 17 16 20 18 15 11 9 23 54 73 82 87 85 88 88 68 57 50 42 39 42 44 47 38 30 26 13 5 1 9 14 21 34 44 54 64 78 89 97 100 102 103 106
6 8 7 5 5 6 6 15 9 16 10 8 6 8 8 7 10 11 39 64 69 83 88 89 87 71 55 46 42 28 22 18 22 20 16 13 4 8 18 26 31 36 49 62 72 77 86 95 103 108 113 118 121 125
Wind_Direction_500mb
303 303 303 304 307 310 309 309 309 310 311 310 308 305 306 301 296 291 290 290 281 273 277 273 268 261 253 253 256 269 296 243 225 212 203 225 224 220 234 227 210 216 179 193 212 216 250 207 53 42 151 268 294 339
301 300 303 305 307 309 307 306 307 307 308 308 307 303 303 301 295 282 280 289 285 269 265 276 273 272 269 267 266 265 250 230 231 198 223 236 250 244 207 234 203 246 212 197 186 208 150 163 294 266 253 267 293 302
297 302 300 302 304 304 304 305 306 304 307 302 305 303 299 302 292 282 283 286 285 275 285 272 264 291 277 274 278 252 254 244 241 242 248 229 239 182 238 258 251 237 195 232 247 239 252 264 271 260 226 263 272 290
293 293 296 300 302 303 301 303 302 303 305 305 303 301 299 296 273 275 276 282 284 279 278 291 284 280 283 267 257 262 276 279 256 249 234 229 240 203 226 240 238 235 230 251 256 253 266 258 252 242 247 263 264 281
295 297 298 300 302 297 299 300 298 301 305 303 305 306 302 301 306 295 283 276 276 268 274 286 286 281 278 269 276 280 273 257 253 226 219 230 223 240 245 247 241 240 249 241 251 229 224 246 258 258 258 249 277 286
296 296 300 301 300 297 300 300 298 302 302 302 300 299 297 296 297 310 308 296 270 268 262 277 275 300 268 275 283 281 274 246 254 274 275 246 249 235 253 250 254 258 247 241 246 250 252 256 258 256 253 259 273 279
291 292 293 297 301 298 305 306 295 297 306 305 299 298 302 303 293 281 270 283 282 279 255 255 269 262 273 249 276 285 279 246 239 253 247 253 248 245 248 262 271 263 253 247 243 248 252 253 250 253 258 265 271 276
290 290 292 293 298 298 303 293 287 297 296 297 301 304 294 293 295 288 292 293 279 271 269 286 271 278 278 267 262 274 267 263 244 242 249 261 268 240 244 248 263 263 263 253 243 250 248 251 254 256 261 264 263 269
285 289 290 296 301 304 298 299 302 306 312 310 304 308 310 294 283 288 294 293 278 257 282 238 229 266 264 257 256 257 236 236 250 218 231 214 223 225 235 241 247 261 238 233 250 250 251 246 250 254 254 257 263 268
285 294 284 293 303 303 302 302 305 310 306 307 318 315 290 287 296 299 303 258 289 220 213 242 316 285 292 284 249 274 222 209 227 234 190 210 239 244 253 256 259 257 240 244 240 246 244 242 245 251 255 265 267 264
275 278 292 297 299 296 299 308 309 312 309 326 297 252 290 299 305 283 287 323 312 290 233 18 319 290 306 260 281 225 261 228 229 255 178 225 257 257 266 264 268 262 255 257 255 253 255 254 256 258 259 263 263 265
287 283 285 287 290 296 299 297 302 304 305 298 291 299 300 324 338 53 273 312 241 288 350 276 329 313 297 281 244 278 282 280 267 163 225 249 263 307 318 347 334 289 272 270 270 268 268 264 261 258 259 261 264 270
278 282 286 291 293 292 291 289 291 295 305 308 272 276 304 322 19 137 269 292 262 261 298 329 321 283 271 261 279 311 252 234 279 30 229 244 257 338 340 335 337 349 341 330 300 287 289 285 275 262 258 266 274 276
284 287 293 286 287 283 287 294 292 295 297 245 216 288 158 287 245 204 203 226 291 286 305 312 287 252 267 300 237 206 247 329 275 283 241 267 221 297 293 295 306 304 302 304 293 288 291 288 281 276 276 276 276 276
289 288 279 284 281 283 293 288 280 260 208 223 192 234 226 236 263 265 274 277 283 292 299 296 276 234 261 277 239 252 339 265 224 258 266 263 259 256 243 273 285 307 300 303 301 292 289 288 284 280 279 277 277 278
272 270 268 277 282 281 277 275 275 260 204 211 226 257 249 267 274 276 275 274 296 293 299 268 257 1 249 228 43 236 258 275 280 284 288 294 289 289 286 283 290 301 292 290 291 289 288 288 287 286 288 285 282 280
273 271 283 284 285 280 276 265 258 226 207 212 245 243 248 262 263 272 276 276 289 274 208 226 237 228 264 253 246 228 233 266 291 292 283 279 283 288 285 285 288 291 288 286 285 284 284 288 288 283 277 283 280 275
265 282 286 280 289 277 273 246 230 237 229 234 238 265 253 267 269 278 280 279 272 250 246 229 240 226 240 242 260 277 291 297 293 287 285 280 279 274 272 275 275 278 276 280 284 284 285 285 279 274 276 277 276 275
271 277 276 276 270 251 254 218 205 231 235 253 261 269 271 274 277 282 286 290 272 258 239 231 233 228 246 291 291 294 298 297 298 299 293 285 276 275 277 275 274 275 276 277 277 276 276 275 276 278 279 279 277 278
271 266 272 261 254 237 237 231 217 247 251 263 266 275 272 275 289 287 287 285 275 231 204 223 225 260 269 286 287 287 296 299 297 296 293 297 291 285 280 278 277 279 280 280 279 280 280 279 276 276 275 275 275 275
267 276 275 243 245 231 254 242 227 241 258 256 275 282 277 287 285 281 283 295 225 206 226 240 258 259 293 297 289 291 295 297 291 288 288 292 294 291 287 285 283 281 279 279 279 279 277 274 277 279 279 281 279 279
263 277 297 244 233 224 228 229 232 252 247 260 282 273 260 272 279 282 293 253 235 274 271 270 269 286 293 295 300 301 300 298 292 287 286 285 288 289 286 286 285 280 278 276 276 276 277 279 282 285 285 285 290 290
258 268 253 219 234 251 255 218 228 229 210 260 279 282 264 257 266 289 257 272 295 290 283 287 306 298 292 301 304 303 303 302 298 296 293 290 287 285 283 282 280 278 279 278 278 278 279 284 286 288 294 299 300 301
243 251 215 218 202 250 247 235 223 249 242 277 248 273 267 257 276 258 256 286 293 298 302 312 305 312 314 311 309 308 310 310 306 304 301 299 295 293 291 288 290 290 288 291 290 287 287 290 298 302 305 308 309 305
209 201 213 230 198 204 313 301 308 3 249 230 224 274 266 292 316 289 264 281 296 323 320 315 323 318 311 309 308 309 313 312 307 304 304 300 299 300 301 302 301 302 305 294 295 297 298 302 306 310 314 315 317 316
189 205 177 201 202 168 199 203 218 223 211 277 245 261 318 63 28 258 245 290 321 322 323 329 324 317 313 310 308 310 313 317 311 303 312 312 304 295 294 297 306 320 331 321 311 308 310 314 314 317 323 330 331 93
187 251 218 217 206 195 260 250 244 129 231 224 248 325 39 325 255 253 310 323 315 320 326 335 328 318 313 312 313 317 322 324 316 310 316 317 318 313 301 297 306 324 329 324 318 314 312 316 322 331 330 334 103 113
211 193 176 195 205 220 177 186 210 222 235 231 143 279 208 211 249 302 309 311 315 326 333 332 331 332 323 322 324 327 329 332 329 330 329 330 340 341 342 333 331 325 324 323 322 318 320 325 326 319 340 99 113 111
201 202 191 223 214 223 215 202 221 236 249 227 180 247 256 287 298 302 306 310 319 334 333 336 337 339 335 332 334 334 336 335 333 332 334 333 340 347 341 336 330 332 328 334 333 329 324 306 323 54 118 126 124 125
215 197 193 193 157 226 244 251 266 280 281 285 282 286 291 298 305 309 305 314 331 336 338 339 339 337 332 335 335 334 342 345 345 334 321 323 327 336 336 339 341 334 334 291 191 125 107 111 123 130 131 127 123 120
196 190 199 216 230 267 277 279 281 287 289 288 292 282 285 300 306 303 300 322 332 342 341 340 340 343 339 337 335 332 334 349 349 342 335 324 319 321 324 323 329 309 295 159 135 124 121 120 122 122 121 119 118 117
202 205 186 227 269 283 297 290 286 275 283 281 282 280 291 296 283 278 311 327 341 344 346 344 340 340 343 338 339 339 340 339 338 328 326 312 313 320 306 289 142 137 128 123 121 118 116 115 112 113 114 116 117 118
217 211 223 269 286 292 315 329 307 323 283 281 291 307 310 293 276 304 327 341 346 346 348 349 348 346 349 353 359 2 360 337 324 329 331 330 330 136 130 128 127 127 124 120 119 119 119 120 117 117 118 119 119 119
Wind_Speed_850mb
41 42 42 45 48 51 51 49 47 48 47 45 43 40 39 39 36 36 39 38 39 38 50 59 60 45 34 24 15 15 13 16 7 7 6 8 9 11 14 16 9 13 9 6 9 9 16 9 2 1 3 3 11 23
43 46 47 50 51 52 51 50 49 49 49 47 46 45 48 47 46 40 49 46 46 57 67 73 78 81 80 79 68 61 38 17 15 4 4 4 5 4 10 11 10 18 14 8 14 9 9 11 14 16 17 20 31 39
48 50 51 51 52 54 55 52 53 50 55 50 53 55 52 55 54 47 53 47 51 56 69 58 49 34 44 61 51 63 47 37 32 52 30 11 17 6 13 20 27 22 16 18 16 23 31 50 61 43 32 36 34 29
51 52 52 52 53 55 55 54 53 54 53 53 55 56 57 58 45 47 41 41 49 32 25 54 49 48 37 34 42 46 61 70 80 57 34 15 17 26 15 18 22 22 13 27 40 39 37 47 52 57 63 42 35 46
52 52 53 56 59 57 57 57 58 56 58 53 57 55 48 52 47 45 50 46 45 41 38 71 72 84 88 89 90 52 70 69 67 36 13 12 11 13 20 16 22 32 35 27 34 22 37 54 66 67 71 54 50 60
54 54 52 54 55 57 57 57 60 59 52 54 51 52 50 46 49 51 39 34 20 23 21 9 17 22 24 51 76 79 64 58 46 28 7 14 43 18 9 21 41 54 62 65 62 70 76 79 70 65 64 67 77 76
54 53 54 55 54 54 56 62 59 52 48 45 43 47 52 53 46 42 29 40 48 48 24 11 11 9 11 16 24 37 35 37 37 30 26 47 49 26 13 27 48 71 76 68 66 72 77 76 73 79 80 79 78 72
49 54 53 51 56 58 56 47 40 44 45 46 52 53 53 53 54 59 57 47 43 48 23 6 9 22 47 43 30 44 41 42 29 34 25 16 24 22 15 35 58 66 68 62 67 65 77 76 79 77 82 81 70 71
54 52 54 56 57 59 53 50 44 44 41 49 52 47 49 30 18 15 32 40 41 33 11 6 3 8 8 17 19 22 24 3 19 10 15 17 11 14 17 35 41 42 41 42 61 73 74 77 82 82 78 73 72 75
50 57 52 53 52 45 42 39 36 41 44 45 41 14 10 6 29 50 31 8 5 9 17 7 20 14 18 14 7 6 10 6 5 11 11 10 18 61 64 68 73 64 65 65 59 55 61 63 69 72 71 80 80 74
43 51 51 40 35 36 35 37 34 33 35 26 7 8 26 43 36 5 7 3 6 6 4 13 9 13 25 6 8 12 5 5 6 8 8 5 7 21 48 61 68 70 73 67 63 64 66 67 65 62 61 62 64 63
50 42 35 37 37 40 31 29 25 29 23 23 20 34 22 8 5 7 5 11 6 5 6 8 21 27 21 16 7 7 6 4 9 11 6 4 9 24 18 15 15 24 41 47 46 50 50 56 58 62 67 60 57 55
39 38 37 36 31 27 25 28 23 25 21 19 6 6 6 4 8 7 7 8 5 7 14 23 15 11 12 13 11 1 5 9 5 2 7 11 13 9 13 15 17 17 19 19 21 22 26 38 46 50 53 52 55 65
37 35 32 26 28 23 26 24 21 18 8 5 6 7 7 7 8 9 9 9 32 23 29 42 17 9 11 4 7 3 9 1 5 4 11 9 21 15 20 19 26 30 32 36 40 41 43 46 53 55 64 71 76 82
32 24 23 24 24 23 23 21 20 13 7 8 7 7 11 24 22 30 33 26 45 43 42 28 16 13 5 4 7 6 9 8 9 21 16 28 41 41 46 35 33 39 44 51 52 53 59 61 61 67 70 71 74 81
21 23 25 26 26 21 17 21 19 18 12 12 14 7 22 7 29 44 42 45 49 35 26 11 5 6 9 6 3 11 10 25 29 21 43 52 45 42 48 42 41 51 53 60 63 65 68 70 73 76 76 79 81 84
17 30 26 24 21 20 21 21 16 12 12 11 17 38 44 38 38 57 48 52 39 22 4 6 8 13 4 6 8 8 10 19 32 48 54 63 68 65 61 63 67 71 68 69 70 75 77 78 77 79 83 87 84 83
25 28 27 23 19 22 22 21 9 11 14 28 13 48 39 53 48 57 59 51 33 17 10 8 10 9 8 11 11 20 45 61 67 66 66 71 75 69 70 68 68 72 70 76 80 82 81 83 82 84 84 81 79 82
23 22 19 19 17 15 8 12 17 10 27 32 42 58 45 49 56 62 62 61 45 39 11 9 10 8 10 15 27 45 54 57 60 69 73 76 75 75 74 73 73 72 76 78 77 78 77 76 81 82 83 85 88 88
20 26 23 18 15 10 8 8 10 11 11 14 29 36 31 38 54 52 59 58 33 12 13 9 10 25 18 47 50 54 64 69 67 68 69 67 60 59 66 68 71 73 72 74 74 75 76 77 78 80 81 81 82 87
18 11 14 17 21 22 9 9 13 13 13 15 31 31 24 38 48 50 48 44 17 13 8 29 38 43 44 53 61 65 70 71 68 68 73 76 72 67 72 69 67 68 71 75 74 75 77 81 85 80 79 83 81 85
18 11 10 8 11 14 18 18 13 7 9 18 26 24 18 12 24 20 22 12 11 32 37 43 37 48 62 65 69 75 81 79 74 72 73 72 70 65 64 63 62 67 66 67 72 79 83 83 77 76 76 82 85 86
18 12 8 11 9 7 7 9 9 8 1 8 7 6 8 11 18 27 11 20 43 43 33 30 44 49 58 72 74 77 75 69 66 64 64 63 66 66 67 68 67 68 70 70 64 73 82 75 75 78 76 74 78 82
23 11 11 11 17 7 5 8 10 8 8 4 2 9 10 14 17 7 9 23 41 41 32 49 48 59 67 69 73 76 72 68 71 68 61 59 63 65 61 67 69 68 70 73 72 75 74 71 64 64 66 70 74 77
11 11 9 10 12 5 2 6 7 4 7 7 2 9 8 8 2 5 11 16 16 41 53 54 64 57 63 76 79 77 75 63 66 73 75 60 67 68 69 67 67 66 58 56 56 53 54 54 56 60 62 64 66 69
9 16 13 16 8 11 11 4 7 10 6 5 10 11 8 5 4 12 7 14 45 49 53 61 66 72 72 66 74 79 86 79 72 71 78 65 65 62 70 72 72 63 47 42 43 49 52 53 54 52 52 49 38 5
7 10 14 17 10 8 3 11 9 3 5 9 7 6 6 4 10 9 27 57 48 57 59 76 73 70 76 81 79 77 74 68 64 66 67 61 55 49 49 53 54 53 50 48 47 46 47 46 43 40 39 28 10 21
16 18 11 14 15 18 7 1 4 8 9 8 4 2 8 13 11 57 61 62 54 59 76 89 80 75 76 76 72 72 68 61 59 57 56 48 42 39 34 38 44 44 41 37 36 33 27 27 26 24 16 17 30 31
13 12 18 5 11 10 17 14 12 15 18 12 9 8 12 50 66 75 63 50 51 67 90 89 86 82 75 69 68 65 61 58 57 62 65 67 61 44 38 34 31 30 29 24 20 14 10 9 9 7 28 46 47 45
10 18 11 6 9 9 16 20 32 39 36 39 37 49 63 56 47 50 48 39 56 83 81 82 82 79 78 79 84 78 58 49 47 49 58 66 58 45 40 35 32 24 14 5 2 5 4 11 24 45 58 61 63 63
8 17 9 10 11 24 32 36 40 43 49 49 44 40 44 34 44 36 23 34 68 79 80 87 87 79 75 74 71 75 75 56 50 45 41 36 38 36 26 20 14 5 2 8 13 20 32 49 61 71 76 81 83 83
11 12 10 3 10 14 25 17 15 17 21 17 16 20 18 15 11 9 23 54 73 82 87 85 88 88 68 57 50 42 39 42 44 47 38 30 26 13 5 1 9 14 21 34 44 54 64 78 89 97 100 102 103 106
6 8 7 5 5 6 6 15 9 16 10 8 6 8 8 7 10 11 39 64 69 83 88 89 87 71 55 46 42 28 22 18 22 20 16 13 4 8 18 26 31 36 49 62 72 77 86 95 103 108 113 118 121 125
Wind_Direction_850mb
303 303 303 304 307 310 309 309 309 310 311 310 308 305 306 301 296 291 290 290 281 273 277 273 268 261 253 253 256 269 296 243 225 212 203 225 224 220 234 227 210 216 179 193 212 216 250 207 53 42 151 268 294 339
301 300 303 305 307 309 307 306 307 307 308 308 307 303 303 301 295 282 280 289 285 269 265 276 273 272 269 267 266 265 250 230 231 198 223 236 250 244 207 234 203 246 212 197 186 208 150 163 294 266 253 267 293 302
297 302 300 302 304 304 304 305 306 304 307 302 305 303 299 302 292 282 283 286 285 275 285 272 264 291 277 274 278 252 254 244 241 242 248 229 239 182 238 258 251 237 195 232 247 239 252 264 271 260 226 263 272 290
293 293 296 300 302 303 301 303 302 303 305 305 303 301 299 296 273 275 276 282 284 279 278 291 284 280 283 267 257 262 276 279 256 249 234 229 240 203 226 240 238 235 230 251 256 253 266 258 252 242 247 263 264 281
295 297 298 300 302 297 299 300 298 301 305 303 305 306 302 301 306 295 283 276 276 268 274 286 286 281 278 269 276 280 273 257 253 226 219 230 223 240 245 247 241 240 249 241 251 229 224 246 258 258 258 249 277 286
296 296 300 301 300 297 300 300 298 302 302 302 300 299 297 296 297 310 308 296 270 268 262 277 275 300 268 275 283 281 274 246 254 274 275 246 249 235 253 250 254 258 247 241 246 250 252 256 258 256 253 259 273 279
291 292 293 297 301 298 305 306 295 297 306 305 299 298 302 303 293 281 270 283 282 279 255 255 269 262 273 249 276 285 279 246 239 253 247 253 248 245 248 262 271 263 253 247 243 248 252 253 250 253 258 265 271 276
290 290 292 293 298 298 303 293 287 297 296 297 301 304 294 293 295 288 292 293 279 271 269 286 271 278 278 267 262 274 267 263 244 242 249 261 268 240 244 248 263 263 263 253 243 250 248 251 254 256 261 264 263 269
285 289 290 296 301 304 298 299 302 306 312 310 304 308 310 294 283 288 294 293 278 257 282 238 229 266 264 257 256 257 236 236 250 218 231 214 223 225 235 241 247 261 238 233 250 250 251 246 250 254 254 257 263 268
285 294 284 293 303 303 302 302 305 310 306 307 318 315 290 287 296 299 303 258 289 220 213 242 316 285 292 284 249 274 222 209 227 234 190 210 239 244 253 256 259 257 240 244 240 246 244 242 245 251 255 265 267 264
275 278 292 297 299 296 299 308 309 312 309 326 297 252 290 299 305 283 287 323 312 290 233 18 319 290 306 260 281 225 261 228 229 255 178 225 257 257 266 264 268 262 255 257 255 253 255 254 256 258 259 263 263 265
287 283 285 287 290 296 299 297 302 304 305 298 291 299 300 324 338 53 273 312 241 288 350 276 329 313 297 281 244 278 282 280 267 163 225 249 263 307 318 347 334 289 272 270 270 268 268 264 261 258 259 261 264 270
278 282 286 291 293 292 291 289 291 295 305 308 272 276 304 322 19 137 269 292 262 261 298 329 321 283 271 261 279 311 252 234 279 30 229 244 257 338 340 335 337 349 341 330 300 287 289 285 275 262 258 266 274 276
284 287 293 286 287 283 287 294 292 295 297 245 216 288 158 287 245 204 203 226 291 286 305 312 287 252 267 300 237 206 247 329 275 283 241 267 221 297 293 295 306 304 302 304 293 288 291 288 281 276 276 276 276 276
289 288 279 284 281 283 293 288 280 260 208 223 192 234 226 236 263 265 274 277 283 292 299 296 276 234 261 277 239 252 339 265 224 258 266 263 259 256 243 273 285 307 300 303 301 292 289 288 284 280 279 277 277 278
272 270 268 277 282 281 277 275 275 260 204 211 226 257 249 267 274 276 275 274 296 293 299 268 257 1 249 228 43 236 258 275 280 284 288 294 289 289 286 283 290 301 292 290 291 289 288 288 287 286 288 285 282 280
273 271 283 284 285 280 276 265 258 226 207 212 245 243 248 262 263 272 276 276 289 274 208 226 237 228 264 253 246 228 233 266 291 292 283 279 283 288 285 285 288 291 288 286 285 284 284 288 288 283 277 283 280 275
265 282 286 280 289 277 273 246 230 237 229 234 238 265 253 267 269 278 280 279 272 250 246 229 240 226 240 242 260 277 291 297 293 287 285 280 279 274 272 275 275 278 276 280 284 284 285 285 279 274 276 277 276 275
271 277 276 276 270 251 254 218 205 231 235 253 261 269 271 274 277 282 286 290 272 258 239 231 233 228 246 291 291 294 298 297 298 299 293 285 276 275 277 275 274 275 276 277 277 276 276 275 276 278 279 279 277 278
271 266 272 261 254 237 237 231 217 247 251 263 266 275 272 275 289 287 287 285 275 231 204 223 225 260 269 286 287 287 296 299 297 296 293 297 291 285 280 278 277 279 280 280 279 280 280 279 276 276 275 275 275 275
267 276 275 243 245 231 254 242 227 241 258 256 275 282 277 287 285 281 283 295 225 206 226 240 258 259 293 297 289 291 295 297 291 288 288 292 294 291 287 285 283 281 279 279 279 279 277 274 277 279 279 281 279 279
263 277 297 244 233 224 228 229 232 252 247 260 282 273 260 272 279 282 293 253 235 274 271 270 269 286 293 295 300 301 300 298 292 287 286 285 288 289 286 286 285 280 278 276 276 276 277 279 282 285 285 285 290 290
258 268 253 219 234 251 255 218 228 229 210 260 279 282 264 257 266 289 257 272 295 290 283 287 306 298 292 301 304 303 303 302 298 296 293 290 287 285 283 282 280 278 279 278 278 278 279 284 286 288 294 299 300 301
243 251 215 218 202 250 247 235 223 249 242 277 248 273 267 257 276 258 256 286 293 298 302 312 305 312 314 311 309 308 310 310 306 304 301 299 295 293 291 288 290 290 288 291 290 287 287 290 298 302 305 308 309 305
209 201 213 230 198 204 313 301 308 3 249 230 224 274 266 292 316 289 264 281 296 323 320 315 323 318 311 309 308 309 313 312 307 304 304 300 299 300 301 302 301 302 305 294 295 297 298 302 306 310 314 315 317 316
189 205 177 201 202 168 199 203 218 223 211 277 245 261 318 63 28 258 245 290 321 322 323 329 324 317 313 310 308 310 313 317 311 303 312 312 304 295 294 297 306 320 331 321 311 308 310 314 314 317 323 330 331 93
187 251 218 217 206 195 260 250 244 129 231 224 248 325 39 325 255 253 310 323 315 320 326 335 328 318 313 312 313 317 322 324 316 310 316 317 318 313 301 297 306 324 329 324 318 314 312 316 322 331 330 334 103 113
211 193 176 195 205 220 177 186 210 222 235 231 143 279 208 211 249 302 309 311 315 326 333 332 331 332 323 322 324 327 329 332 329 330 329 330 340 341 342 333 331 325 324 323 322 318 320 325 326 319 340 99 113 111
201 202 191 223 214 223 215 202 221 236 249 227 180 247 256 287 298 302 306 310 319 334 333 336 337 339 335 332 334 334 336 335 333 332 334 333 340 347 341 336 330 332 328 334 333 329 324 306 323 54 118 126 124 125
215 197 193 193 157 226 244 251 266 280 281 285 282 286 291 298 305 309 305 314 331 336 338 339 339 337 332 335 335 334 342 345 345 334 321 323 327 336 336 339 341 334 334 291 191 125 107 111 123 130 131 127 123 120
196 190 199 216 230 267 277 279 281 287 289 288 292 282 285 300 306 303 300 322 332 342 341 340 340 343 339 337 335 332 334 349 349 342 335 324 319 321 324 323 329 309 295 159 135 124 121 120 122 122 121 119 118 117
202 205 186 227 269 283 297 290 286 275 283 281 282 280 291 296 283 278 311 327 341 344 346 344 340 340 343 338 339 339 340 339 338 328 326 312 313 320 306 289 142 137 128 123 121 118 116 115 112 113 114 116 117 118
217 211 223 269 286 292 315 329 307 323 283 281 291 307 310 293 276 304 327 341 346 346 348 349 348 346 349 353 359 2 360 337 324 329 331 330 330 136 130 128 127 127 124 120 119 119 119 120 117 117 118 119 119 119